sat.trackr.live / text

‹ back to catalog

STARLINK-1572

NORAD 46060 · 2020-055AK

PAYLOAD ACTIVE UNKNOWN

§ Identity

Operator
Country
US
Launch date
2020-08-07
Launch site
AFETR
Launch vehicle
Mass (kg)
RCS (m²)

Purposes: comms

External: N2YO · Heavens-Above · Gunter

§ Orbital elements

Epoch: 2026-09-20T01:41:37.730976Z

Period
94.01 min
Inclination
53.1566°
Eccentricity
0.0002043
Mean motion
15.31698299 rev/d
Perigee alt
469.3 km
Apogee alt
472.1 km
Semi-major
6,848.9 km
B*
2.8423e-5
RAAN
290.8526°
Arg perigee
91.4032°
Mean anomaly
268.7203°
Rev number
33,880

§ Raw data

STARLINK-15721 46060U 20055AK  26263.07057559  .00000516  00000+0  28423-4 0  99992 46060  53.1566 290.8526 0002043  91.4032 268.7203 15.31698299338807

JSON: /api/v1/satellites/46060 · /tle

For live sub-satellite position, see the globe view (requires WebGL).

§ Visibility from observer

Set your observer location to see the next 7 days of passes ≥ 10°. The values pass through the URL so the page stays shareable.

No JS? Fill the form by hand. The geolocation button needs JavaScript.